Starlink 32325

operational
NORAD ID: 61588 Int'l Des: 2024-187 Owner: SPXS Country: US Constellation: starlink
LEOCIRCULAR

About Starlink 32325

Description loading...

Live Position

Loading 3D Globe...

Upcoming Passes

Altitude History

Altitude vs Time

uPlot chart will show altitude changes over time

Two-Line Element Set

1 61588U 24187Q 25305.29346713 -.00000380 00000-0 -68033-6 0 9999
2 61588 53.1612 301.5633 0002285 94.2088 265.9174 15.30194274 59427
Epoch: Nov 1, 2025 • Age: 22 hours

Current Status

Altitude 477.1 km
Velocity 7.63 km/s
Sub-Earth Point -4.22°S, 177.95°E
Launch Date Oct 18, 2024
Age 1 years
Type internet

Technical Details

Classification Payload
Mass 730.00 kg
Dry Mass 700.00 kg
Total Mass 730.00 kg
Length 0.30 m
Diameter 4.10 m
Span 29.00 m
Shape Box + pan
Manufacturer SPXS
Bus Type Starlink V2M
Phase Status In Orbit
Owner/State SPXS/US

Large Constellations

Loading constellations...